Location: Caltech
(34.1382°N, 118.1253°W)
Time: 14:31:59
(UTC-07:00)

RS-15 - Visible Passes

Search period start: 24 April 2014 00:00
Search period end: 04 May 2014 00:00
Orbit: 1900 x 2145 km, 64.8° (Epoch: 22 April)

Date Brightness Start Highest point End Pass type
(mag) Time Alt. Az. Time Alt. Az. Time Alt. Az.
24 Apr 9.8 04:27:44 10° SSE 04:36:00 24° ESE 04:44:01 10° NE visible
25 Apr 10.0 03:54:37 10° SE 04:00:28 16° E 04:06:12 10° ENE visible
26 Apr 8.5 05:24:04 10° S 05:35:17 64° ESE 05:46:05 10° NE visible
27 Apr 8.8 04:48:45 10° S 04:59:28 48° ESE 05:09:47 10° NE visible
28 Apr 9.2 04:13:53 10° SSE 04:23:45 35° ESE 04:33:15 10° NE visible
29 Apr 9.5 03:39:36 10° SSE 03:48:06 25° ESE 03:56:21 10° NE visible
30 Apr 9.8 03:06:15 10° SE 03:12:34 17° E 03:18:43 10° ENE visible
30 Apr 8.1 05:11:54 10° SSW 05:23:20 86° ESE 05:34:23 10° NNE visible
01 May 8.3 04:36:10 10° SSW 04:47:25 67° ESE 04:58:16 10° NE visible
02 May 8.6 04:00:48 10° S 04:11:36 50° ESE 04:22:00 10° NE visible
03 May 9.0 03:26:23 12° SSE 03:35:51 37° ESE 03:45:31 10° NE visible
